Content
SEND FEEDBACK

Daily
Averages
Monthly
Summary
Canada

MONCTON, NEW BRUNSWICK


Home > North America > Canada > New Brunswick
Elevation: 232 feet     Latitude: 46 07N     Longitude: 064 41W

WEATHER
 
SELECT A DAY
Number of Records: 203,635;   Date Range: 1/1/95 - 9/17/14
 
SHARE

PRINT THIS DATA

[ ← Previous Day ]
WEATHER ALMANAC - FEBRUARY 6, 2013
[ Next Day → ]
[ °C ]   °F
Weather ElementAverageHighLow
Temperature12.5 °F21.2 °F (3:00 pm)-0.4 °F (4:00 am)
Dewpoint1 °F15.8 °F (10:00 pm)-7.6 °F (1:00 am)
Humidity60.6 %86 % (8:41 pm)24 % (2:00 pm)
Barometer30.00 in30.07 in (1:00 am)29.93 in (4:00 pm)
Wind Speed6.9 mph15 mph (10:47 pm)
Wind Gust23 mph (11:00 pm)
Weather ElementAverage
Visibility14.4 mi
Wind DirectionSSE (171 °)

Weather ElementTotal
Precipitation---
Heating Degree Days54.6 (Base 65)
Averaged from 30 records on February 6, 2013
WEATHER CONDITIONS BREAKOUT
WIND DIRECTION BREAKOUT
WEATHER BY HOUR - FEBRUARY 6, 2013
[ °C ]   °F
Local TimeTemperatureDewpointHumidityBarometerVisibilityWind DirectionWind SpeedGust SpeedPrecipitationEventsConditions
1:00 AM1.4 °F-7.6 °F66 %30.07 in15.0 miSouth (190°)5.8 mphClear
2:00 AM1.0 °F-7.0 °F56 %30.07 in15.0 miWSW (240°)4.6 mph
2:00 AM1.4 °F-7.6 °F66 %30.06 in15.0 miSW (230°)4.6 mphClear
3:00 AM1.4 °F-7.6 °F66 %30.06 in15.0 miWest (260°)5.8 mphScattered Clouds
4:00 AM-0.4 °F-5.8 °F78 %30.05 in15.0 miSouth (180°)3.5 mphScattered Clouds
5:00 AM-0.4 °F-5.8 °F78 %30.04 in15.0 miSSE (150°)2.3 mphScattered Clouds
6:00 AM1.4 °F-7.6 °F66 %30.04 in15.0 miCalmScattered Clouds
7:00 AM3.2 °F-5.8 °F66 %30.05 in15.0 miSouth (180°)4.6 mphMostly Cloudy
8:00 AM3.2 °F-4.0 °F72 %30.07 in15.0 miSouth (180°)6.9 mphMostly Cloudy
8:00 AM3.0 °F-5.0 °F58 %30.07 in15.0 miSouth (170°)5.8 mphPartly Cloudy
9:00 AM6.8 °F-7.6 °F52 %30.07 in15.0 miSE (140°)3.5 mphMostly Cloudy
10:00 AM10.4 °F-4.0 °F52 %30.06 in15.0 miEast (100°)4.6 mphMostly Cloudy
11:00 AM12.2 °F-5.8 °F45 %30.04 in15.0 miESE (120°)8.1 mphMostly Cloudy
12:00 PM15.8 °F-2.2 °F45 %30.01 in15.0 miSE (130°)4.6 mphMostly Cloudy
1:00 PM17.6 °F-2.2 °F42 %29.99 in15.0 miESE (110°)3.5 mphMostly Cloudy
2:00 PM19.4 °F-2.2 °F39 %29.96 in15.0 miSE (130°)5.8 mphMostly Cloudy
2:00 PM20.0 °F-1.0 °F24 %29.96 in15.0 miSE (140°)5.8 mphMostly Cloudy
3:00 PM21.2 °F-2.2 °F36 %29.94 in15.0 miSE (140°)9.2 mphOvercast
4:00 PM19.4 °F-0.4 °F42 %29.93 in15.0 miSE (130°)10.4 mphOvercast
5:00 PM19.4 °F1.4 °F46 %29.93 in15.0 miSE (140°)5.8 mphMostly Cloudy
6:00 PM19.4 °F3.2 °F49 %29.93 in15.0 miSE (140°)6.9 mphMostly Cloudy
7:00 PM19.4 °F6.8 °F58 %29.94 in15.0 miSouth (180°)12.7 mphSnowLight Snow Showers
8:00 PM19.4 °F12.2 °F74 %29.96 in15.0 miSSW (200°)9.2 mphSnowLight Snow Showers
8:00 PM20.0 °F13.0 °F62 %29.96 in15.0 miSSW (200°)9.2 mphSnowLight Snow Showers
8:41 PM17.6 °F14.0 °F86 %29.96 in15.0 miSouth (170°)8.1 mphMostly Cloudy
9:00 PM19.4 °F14.0 °F80 %29.96 in15.0 miSouth (170°)8.1 mphSnowLight Snow Showers
10:00 PM19.4 °F15.8 °F86 %29.97 in15.0 miSW (220°)5.8 mphSnowLight Snow Showers
10:29 PM21.2 °F15.8 °F80 %29.98 in4.0 miWest (270°)10.4 mphSnowLight Snow Showers
10:47 PM21.2 °F14.0 °F74 %29.99 in12.0 miWest (260°)15.0 mphSnowLight Snow Showers
11:00 PM19.4 °F12.2 °F74 %29.99 in12.0 miWest (260°)15.0 mph23.0 mphSnowLight Snow Showers
Hourly data recorded from CYQM, located miles away from Moncton, New Brunswick







STORIES FROM OUR PARTNERS